Time,TemperatureF,DewpointF,PressureIn,WindDirection,WindDirectionDegrees,WindSpeedMPH,WindSpeedGustMPH,Humidity,HourlyPrecipIn,Conditions,Clouds,dailyrainin,SoftwareType,DateUTC
2013-05-20 04:16:00,71.8,70.0,30.00,NE,45,0.0,0.0,94,0.00,BKN,,0.10,WeatherDisplay:10.37,2013-05-20 08:16:00,
2013-05-20 04:21:00,68.9,68.0,29.99,SE,135,0.0,0.0,97,0.29,RA,,0.39,WeatherDisplay:10.37,2013-05-20 08:21:00,
2013-05-20 04:26:00,68.9,68.0,29.99,SE,135,0.0,0.0,97,0.29,RA,,0.39,WeatherDisplay:10.37,2013-05-20 08:26:00,
2013-05-20 04:31:00,68.9,68.0,29.99,SE,135,0.0,0.0,97,0.29,RA,,0.39,WeatherDisplay:10.37,2013-05-20 08:31:00,
2013-05-20 04:36:00,69.1,68.2,29.99,SE,135,0.0,0.0,97,0.29,RA,,0.39,WeatherDisplay:10.37,2013-05-20 08:36:00,
2013-05-20 04:41:00,69.1,68.2,30.00,SE,135,0.0,0.0,97,0.29,BKN,,0.39,WeatherDisplay:10.37,2013-05-20 08:41:00,
2013-05-20 04:46:00,69.1,68.2,30.00,SE,135,0.0,0.0,97,0.29,BKN,,0.39,WeatherDisplay:10.37,2013-05-20 08:46:00,
2013-05-20 04:51:00,68.7,67.8,30.00,SE,135,0.0,0.0,97,0.29,BKN,,0.39,WeatherDisplay:10.37,2013-05-20 08:51:00,
2013-05-20 04:56:00,68.7,67.8,30.00,SE,135,0.0,0.0,97,0.29,BKN,,0.39,WeatherDisplay:10.37,2013-05-20 08:56:00,
2013-05-20 05:01:00,68.5,67.7,30.00,SE,135,0.0,0.0,97,0.29,BKN,,0.39,WeatherDisplay:10.37,2013-05-20 09:01:00,
2013-05-20 05:06:00,68.7,67.8,30.00,SE,135,0.0,0.0,97,0.29,BKN,,0.39,WeatherDisplay:10.37,2013-05-20 09:06:00,
2013-05-20 05:11:00,68.9,68.0,30.00,SE,135,0.0,0.0,97,0.29,BKN,,0.39,WeatherDisplay:10.37,2013-05-20 09:11:00,
2013-05-20 05:16:00,68.9,68.0,30.00,SE,135,0.0,0.0,97,0.29,BKN,,0.39,WeatherDisplay:10.37,2013-05-20 09:16:00,
2013-05-20 05:21:00,68.9,68.0,30.00,SE,135,0.0,0.0,97,0.29,BKN,,0.39,WeatherDisplay:10.37,2013-05-20 09:21:00,
2013-05-20 05:26:00,68.9,68.0,30.00,SE,135,0.0,0.0,97,0.29,BKN,,0.39,WeatherDisplay:10.37,2013-05-20 09:26:00,
2013-05-20 05:31:00,68.7,67.8,30.00,SE,135,0.0,0.0,97,0.29,BKN,,0.39,WeatherDisplay:10.37,2013-05-20 09:31:00,
2013-05-20 05:36:00,68.7,67.8,30.00,SE,135,0.0,0.0,97,0.29,BKN,,0.39,WeatherDisplay:10.37,2013-05-20 09:36:00,
2013-05-20 05:41:00,68.5,67.7,30.01,SE,135,0.0,0.0,97,0.29,BKN,,0.39,WeatherDisplay:10.37,2013-05-20 09:41:00,
2013-05-20 05:46:00,68.5,67.7,30.00,SE,135,0.0,0.0,97,0.29,BKN,,0.39,WeatherDisplay:10.37,2013-05-20 09:46:00,
2013-05-20 05:51:00,68.5,67.7,30.00,SE,135,0.0,0.0,97,0.00,BKN,,0.39,WeatherDisplay:10.37,2013-05-20 09:51:00,
2013-05-20 05:56:00,68.7,67.8,30.00,SE,135,0.0,0.0,97,0.00,BKN,,0.39,WeatherDisplay:10.37,2013-05-20 09:56:00,
2013-05-20 06:01:00,68.7,67.8,30.00,SE,135,0.0,0.0,97,0.00,BKN,,0.39,WeatherDisplay:10.37,2013-05-20 10:01:00,
2013-05-20 06:06:00,68.7,67.8,30.00,SE,135,0.0,0.0,97,0.00,BKN,,0.39,WeatherDisplay:10.37,2013-05-20 10:06:00,
2013-05-20 06:11:00,68.7,67.8,30.00,SE,135,0.0,0.0,97,0.00,BKN,,0.39,WeatherDisplay:10.37,2013-05-20 10:11:00,
2013-05-20 06:16:00,68.7,67.8,30.00,SE,135,0.0,0.0,97,0.00,BKN,,0.39,WeatherDisplay:10.37,2013-05-20 10:16:00,
2013-05-20 06:21:00,68.7,67.8,30.00,SE,135,0.0,0.0,97,0.00,BKN,,0.39,WeatherDisplay:10.37,2013-05-20 10:21:00,
2013-05-20 06:26:00,68.7,67.8,30.00,SE,135,0.0,0.0,97,0.00,BKN,,0.39,WeatherDisplay:10.37,2013-05-20 10:26:00,
2013-05-20 06:31:00,69.1,68.2,30.01,SE,135,0.0,0.0,97,0.00,BKN,,0.39,WeatherDisplay:10.37,2013-05-20 10:31:00,
2013-05-20 06:36:00,69.1,68.2,30.02,SE,135,0.0,0.0,97,0.00,BKN,,0.39,WeatherDisplay:10.37,2013-05-20 10:36:00,
2013-05-20 06:41:00,69.4,68.6,30.01,SE,135,0.0,0.0,97,0.00,BKN,,0.39,WeatherDisplay:10.37,2013-05-20 10:41:00,
2013-05-20 06:46:00,69.4,68.6,30.02,SE,135,0.0,0.0,97,0.00,BKN,,0.39,WeatherDisplay:10.37,2013-05-20 10:46:00,
2013-05-20 06:51:00,69.4,68.6,30.02,SE,135,0.0,0.0,97,0.00,BKN,,0.39,WeatherDisplay:10.37,2013-05-20 10:51:00,
2013-05-20 06:56:00,69.4,68.6,30.02,SE,135,0.0,0.0,97,0.00,BKN,,0.39,WeatherDisplay:10.37,2013-05-20 10:56:00,
2013-05-20 07:01:00,69.4,68.6,30.02,SE,135,0.0,0.0,97,0.00,BKN,,0.39,WeatherDisplay:10.37,2013-05-20 11:01:00,
2013-05-20 07:06:00,69.4,68.6,30.02,SE,135,0.0,0.0,97,0.00,OVC,,0.39,WeatherDisplay:10.37,2013-05-20 11:06:00,
2013-05-20 07:11:00,69.6,68.7,30.02,SE,135,0.0,0.0,97,0.00,OVC,,0.39,WeatherDisplay:10.37,2013-05-20 11:11:00,
2013-05-20 07:16:00,69.4,68.6,30.02,SE,135,0.0,0.0,97,0.00,OVC,,0.39,WeatherDisplay:10.37,2013-05-20 11:16:00,
2013-05-20 07:21:00,69.6,68.7,30.03,SE,135,0.0,0.0,97,0.00,OVC,,0.39,WeatherDisplay:10.37,2013-05-20 11:21:00,
2013-05-20 07:26:00,69.6,68.7,30.03,SE,135,0.0,0.0,97,0.00,OVC,,0.39,WeatherDisplay:10.37,2013-05-20 11:26:00,
2013-05-20 07:31:00,70.0,69.1,30.03,SE,135,0.2,0.0,97,0.00,OVC,,0.39,WeatherDisplay:10.37,2013-05-20 11:31:00,
2013-05-20 07:36:00,70.2,69.3,30.03,SE,135,0.0,0.0,97,0.00,OVC,,0.39,WeatherDisplay:10.37,2013-05-20 11:36:00,
2013-05-20 07:41:00,70.3,69.4,30.03,SE,135,0.0,0.0,97,0.00,OVC,,0.39,WeatherDisplay:10.37,2013-05-20 11:41:00,
2013-05-20 07:46:00,70.5,69.6,30.03,SE,135,0.0,0.0,97,0.00,OVC,,0.39,WeatherDisplay:10.37,2013-05-20 11:46:00,
2013-05-20 07:51:00,70.5,69.6,30.03,SE,135,0.0,0.0,97,0.00,OVC,,0.39,WeatherDisplay:10.37,2013-05-20 11:51:00,
2013-05-20 07:56:00,70.7,69.8,30.03,SE,135,0.0,0.0,97,0.00,OVC,,0.39,WeatherDisplay:10.37,2013-05-20 11:56:00,
2013-05-20 08:01:00,70.9,70.0,30.03,SE,135,0.0,0.0,97,0.00,OVC,,0.39,WeatherDisplay:10.37,2013-05-20 12:01:00,
2013-05-20 08:06:00,70.9,70.0,30.03,SE,135,0.0,0.0,97,0.00,OVC,,0.39,WeatherDisplay:10.37,2013-05-20 12:06:00,
2013-05-20 08:11:00,71.2,70.3,30.03,SE,135,0.0,0.0,97,0.00,OVC,,0.39,WeatherDisplay:10.37,2013-05-20 12:11:00,
2013-05-20 08:16:00,71.2,70.3,30.03,SE,135,0.0,0.0,97,0.00,OVC,,0.39,WeatherDisplay:10.37,2013-05-20 12:16:00,
2013-05-20 08:21:00,71.4,70.5,30.03,SE,135,0.1,1.2,97,0.00,OVC,,0.39,WeatherDisplay:10.37,2013-05-20 12:21:00,
2013-05-20 08:26:00,71.6,70.7,30.04,SE,135,0.5,0.0,97,0.00,OVC,,0.39,WeatherDisplay:10.37,2013-05-20 12:26:00,
2013-05-20 08:31:00,71.8,70.9,30.04,SE,135,0.0,0.0,97,0.00,OVC,,0.39,WeatherDisplay:10.37,2013-05-20 12:31:00,
2013-05-20 08:36:00,72.1,71.2,30.04,SE,135,0.3,0.0,97,0.00,OVC,,0.39,WeatherDisplay:10.37,2013-05-20 12:36:00,
2013-05-20 08:41:00,72.1,71.2,30.04,SW,225,0.3,0.0,97,0.00,OVC,,0.39,WeatherDisplay:10.37,2013-05-20 12:41:00,
2013-05-20 08:46:00,72.1,71.2,30.04,South,180,0.0,0.0,97,0.00,OVC,,0.39,WeatherDisplay:10.37,2013-05-20 12:46:00,
2013-05-20 08:51:00,72.1,71.2,30.04,South,180,0.0,0.0,97,0.00,OVC,,0.39,WeatherDisplay:10.37,2013-05-20 12:51:00,
2013-05-20 08:56:00,72.5,71.6,30.04,South,180,0.6,2.3,97,0.00,OVC,,0.39,WeatherDisplay:10.37,2013-05-20 12:56:00,
2013-05-20 09:01:00,72.7,71.8,30.04,South,180,0.0,0.0,97,0.00,OVC,,0.39,WeatherDisplay:10.37,2013-05-20 13:01:00,
2013-05-20 09:06:00,72.7,71.8,30.04,South,180,0.0,0.0,97,0.00,OVC,,0.39,WeatherDisplay:10.37,2013-05-20 13:06:00,
2013-05-20 09:11:00,72.7,71.8,30.04,South,180,0.0,0.0,97,0.00,OVC,,0.39,WeatherDisplay:10.37,2013-05-20 13:11:00,
2013-05-20 09:16:00,73.0,72.1,30.05,South,180,0.0,0.0,97,0.00,OVC,,0.39,WeatherDisplay:10.37,2013-05-20 13:16:00,
2013-05-20 09:20:00,73.2,72.3,30.05,South,180,0.0,0.0,97,0.00,OVC,,0.39,WeatherDisplay:10.37,2013-05-20 13:20:00,
2013-05-20 09:25:00,73.4,72.5,30.05,South,180,0.0,0.0,97,0.00,OVC,,0.39,WeatherDisplay:10.37,2013-05-20 13:25:00,
2013-05-20 09:30:00,73.6,72.7,30.05,South,180,0.0,0.0,97,0.00,OVC,,0.39,WeatherDisplay:10.37,2013-05-20 13:30:00,
2013-05-20 09:35:00,73.8,72.9,30.05,South,180,0.0,0.0,97,0.00,OVC,,0.39,WeatherDisplay:10.37,2013-05-20 13:35:00,
2013-05-20 09:40:00,73.9,73.0,30.06,South,180,0.0,0.0,97,0.00,OVC,,0.39,WeatherDisplay:10.37,2013-05-20 13:40:00,
2013-05-20 09:45:00,74.3,73.4,30.06,South,180,0.0,0.0,97,0.00,OVC,,0.39,WeatherDisplay:10.37,2013-05-20 13:45:00,
2013-05-20 09:50:00,74.7,73.8,30.06,South,180,0.0,0.0,97,0.00,OVC,,0.39,WeatherDisplay:10.37,2013-05-20 13:50:00,
2013-05-20 09:55:00,74.8,73.9,30.05,South,180,0.0,0.0,97,0.00,OVC,,0.39,WeatherDisplay:10.37,2013-05-20 13:55:00,
2013-05-20 10:00:00,75.0,73.8,30.06,South,180,0.0,0.0,96,0.00,OVC,,0.39,WeatherDisplay:10.37,2013-05-20 14:00:00,
2013-05-20 10:05:00,75.4,73.8,30.05,South,180,0.0,0.0,95,0.00,OVC,,0.39,WeatherDisplay:10.37,2013-05-20 14:05:00,
2013-05-20 10:10:00,75.4,73.8,30.05,South,180,0.0,0.0,95,0.00,OVC,,0.39,WeatherDisplay:10.37,2013-05-20 14:10:00,
2013-05-20 10:15:00,75.6,73.7,30.05,South,180,0.0,0.0,94,0.00,OVC,,0.39,WeatherDisplay:10.37,2013-05-20 14:15:00,
2013-05-20 10:20:00,75.7,73.9,30.05,South,180,0.0,0.0,94,0.00,OVC,,0.39,WeatherDisplay:10.37,2013-05-20 14:20:00,
2013-05-20 10:25:00,76.1,73.9,30.05,East,90,0.0,0.0,93,0.00,OVC,,0.39,WeatherDisplay:10.37,2013-05-20 14:25:00,
2013-05-20 10:30:00,76.3,74.1,30.05,East,90,0.0,0.0,93,0.00,OVC,,0.39,WeatherDisplay:10.37,2013-05-20 14:30:00,
2013-05-20 10:35:00,76.3,73.8,30.06,East,90,0.0,0.0,92,0.00,OVC,,0.39,WeatherDisplay:10.37,2013-05-20 14:35:00,
2013-05-20 10:40:00,76.5,73.6,30.06,East,90,0.0,0.0,91,0.00,OVC,,0.39,WeatherDisplay:10.37,2013-05-20 14:40:00,
2013-05-20 10:45:00,76.6,73.8,30.06,East,90,0.0,0.0,91,0.00,OVC,,0.39,WeatherDisplay:10.37,2013-05-20 14:45:00,
2013-05-20 10:50:00,77.0,73.8,30.05,East,90,0.0,0.0,90,0.00,OVC,,0.39,WeatherDisplay:10.37,2013-05-20 14:50:00,
2013-05-20 10:55:00,77.5,74.7,30.06,East,90,0.2,0.0,91,0.00,OVC,,0.39,WeatherDisplay:10.37,2013-05-20 14:55:00,
2013-05-20 11:00:00,77.7,74.2,30.06,East,90,0.1,2.8,89,0.00,OVC,,0.39,WeatherDisplay:10.37,2013-05-20 15:00:00,
2013-05-20 11:05:00,77.9,74.4,30.06,East,90,0.0,0.0,89,0.00,OVC,,0.39,WeatherDisplay:10.37,2013-05-20 15:05:00,
2013-05-20 11:10:00,78.3,74.4,30.06,East,90,0.1,0.0,88,0.00,OVC,,0.39,WeatherDisplay:10.37,2013-05-20 15:10:00,
2013-05-20 11:15:00,78.4,74.2,30.06,East,90,0.0,0.0,87,0.00,OVC,,0.39,WeatherDisplay:10.37,2013-05-20 15:15:00,
2013-05-20 11:20:00,78.4,73.9,30.06,East,90,0.5,2.8,86,0.00,OVC,,0.39,WeatherDisplay:10.37,2013-05-20 15:20:00,
2013-05-20 11:25:00,78.3,73.7,30.06,East,90,0.0,0.0,86,0.00,OVC,,0.39,WeatherDisplay:10.37,2013-05-20 15:25:00,
2013-05-20 11:30:00,78.4,73.9,30.06,East,90,0.0,0.0,86,0.00,OVC,,0.39,WeatherDisplay:10.37,2013-05-20 15:30:00,
2013-05-20 11:35:00,78.6,74.1,30.06,East,90,0.0,0.0,86,0.00,OVC,,0.39,WeatherDisplay:10.37,2013-05-20 15:35:00,
2013-05-20 11:40:00,78.6,73.7,30.06,NE,45,0.0,0.0,85,0.00,OVC,,0.39,WeatherDisplay:10.37,2013-05-20 15:40:00,
2013-05-20 11:45:00,78.6,73.7,30.06,NE,45,0.0,1.4,85,0.00,OVC,,0.39,WeatherDisplay:10.37,2013-05-20 15:45:00,
2013-05-20 11:50:00,79.0,74.4,30.06,NE,45,0.0,0.0,86,0.00,OVC,,0.39,WeatherDisplay:10.37,2013-05-20 15:50:00,
2013-05-20 11:55:00,79.3,74.1,30.06,NE,45,0.0,2.3,84,0.00,OVC,,0.39,WeatherDisplay:10.37,2013-05-20 15:55:00,
2013-05-20 12:00:00,79.3,74.1,30.06,NE,45,0.5,0.0,84,0.00,OVC,,0.39,WeatherDisplay:10.37,2013-05-20 16:00:00,
2013-05-20 12:05:00,79.3,73.7,30.06,NE,45,0.0,0.0,83,0.00,OVC,,0.39,WeatherDisplay:10.37,2013-05-20 16:05:00,
2013-05-20 12:10:00,79.3,74.1,30.06,NE,45,0.0,0.0,84,0.00,OVC,,0.39,WeatherDisplay:10.37,2013-05-20 16:10:00,
2013-05-20 12:15:00,79.5,73.9,30.06,East,90,0.2,0.0,83,0.00,OVC,,0.39,WeatherDisplay:10.37,2013-05-20 16:15:00,
2013-05-20 12:20:00,79.7,73.7,30.06,East,90,0.0,0.0,82,0.00,OVC,,0.39,WeatherDisplay:10.37,2013-05-20 16:20:00,
2013-05-20 12:25:00,79.3,73.7,30.06,East,90,0.0,0.0,83,0.00,OVC,,0.39,WeatherDisplay:10.37,2013-05-20 16:25:00,
2013-05-20 12:30:00,79.3,74.1,30.05,East,90,0.0,0.0,84,0.00,OVC,,0.39,WeatherDisplay:10.37,2013-05-20 16:30:00,
2013-05-20 12:35:00,79.7,74.4,30.05,East,90,0.0,0.0,84,0.00,OVC,,0.39,WeatherDisplay:10.37,2013-05-20 16:35:00,
2013-05-20 12:40:00,80.1,74.1,30.05,East,90,0.0,0.0,82,0.00,OVC,,0.39,WeatherDisplay:10.37,2013-05-20 16:40:00,
2013-05-20 12:45:00,80.2,74.6,30.05,East,90,0.0,0.0,83,0.00,OVC,,0.39,WeatherDisplay:10.37,2013-05-20 16:45:00,
2013-05-20 12:50:00,80.8,74.4,30.05,East,90,0.0,0.0,81,0.00,OVC,,0.39,WeatherDisplay:10.37,2013-05-20 16:50:00,
2013-05-20 12:55:00,81.1,74.4,30.05,East,90,0.0,0.0,80,0.00,OVC,,0.39,WeatherDisplay:10.37,2013-05-20 16:55:00,
2013-05-20 13:00:00,80.2,73.5,30.05,NE,45,0.0,0.0,80,0.00,OVC,,0.39,WeatherDisplay:10.37,2013-05-20 17:00:00,
2013-05-20 13:05:00,80.8,74.0,30.05,NE,45,0.0,0.0,80,0.00,OVC,,0.39,WeatherDisplay:10.37,2013-05-20 17:05:00,
2013-05-20 13:10:00,81.3,74.2,30.04,NE,45,0.0,0.0,79,0.00,OVC,,0.39,WeatherDisplay:10.37,2013-05-20 17:10:00,
2013-05-20 13:15:00,81.0,74.6,30.04,NE,45,0.4,0.0,81,0.00,OVC,,0.39,WeatherDisplay:10.37,2013-05-20 17:15:00,
2013-05-20 13:20:00,80.8,74.0,30.04,NE,45,0.1,0.0,80,0.00,OVC,,0.39,WeatherDisplay:10.37,2013-05-20 17:20:00,
2013-05-20 13:25:00,80.4,74.1,30.04,North,0,0.0,2.8,81,0.00,OVC,,0.39,WeatherDisplay:10.37,2013-05-20 17:25:00,
2013-05-20 13:30:00,80.2,73.9,30.04,North,0,0.2,0.0,81,0.00,OVC,,0.39,WeatherDisplay:10.37,2013-05-20 17:30:00,
2013-05-20 13:35:00,80.4,74.4,30.03,North,0,0.0,0.0,82,0.00,OVC,,0.39,WeatherDisplay:10.37,2013-05-20 17:35:00,
2013-05-20 13:40:00,80.8,74.4,30.04,North,0,0.4,2.8,81,0.00,OVC,,0.39,WeatherDisplay:10.37,2013-05-20 17:40:00,
2013-05-20 13:45:00,80.4,73.7,30.03,North,0,0.0,0.0,80,0.00,OVC,,0.39,WeatherDisplay:10.37,2013-05-20 17:45:00,
2013-05-20 13:50:00,80.2,73.9,30.03,North,0,0.0,0.0,81,0.00,OVC,,0.39,WeatherDisplay:10.37,2013-05-20 17:50:00,
2013-05-20 13:55:00,80.4,74.1,30.03,North,0,0.0,0.0,81,0.00,OVC,,0.39,WeatherDisplay:10.37,2013-05-20 17:55:00,
2013-05-20 14:00:00,80.4,74.1,30.03,North,0,0.2,0.0,81,0.00,OVC,,0.39,WeatherDisplay:10.37,2013-05-20 18:00:00,
2013-05-20 14:05:00,80.4,73.7,30.03,North,0,0.0,0.0,80,0.00,OVC,,0.39,WeatherDisplay:10.37,2013-05-20 18:05:00,
2013-05-20 14:10:00,80.1,73.7,30.03,North,0,0.1,2.8,81,0.00,OVC,,0.39,WeatherDisplay:10.37,2013-05-20 18:10:00,
2013-05-20 14:15:00,79.7,73.7,30.03,NE,45,0.7,0.0,82,0.00,OVC,,0.39,WeatherDisplay:10.37,2013-05-20 18:15:00,
2013-05-20 14:20:00,79.5,73.5,30.03,NE,45,0.1,2.3,82,0.00,OVC,,0.39,WeatherDisplay:10.37,2013-05-20 18:20:00,
2013-05-20 14:25:00,79.5,73.5,30.02,NE,45,0.0,0.0,82,0.00,OVC,,0.39,WeatherDisplay:10.37,2013-05-20 18:25:00,
2013-05-20 14:30:00,79.5,73.5,30.02,NE,45,1.1,2.8,82,0.00,OVC,,0.39,WeatherDisplay:10.37,2013-05-20 18:30:00,
2013-05-20 14:35:00,79.3,73.4,30.02,NE,45,4.3,4.6,82,0.00,OVC,,0.39,WeatherDisplay:10.37,2013-05-20 18:35:00,
2013-05-20 14:40:00,79.5,73.9,30.02,NE,45,0.0,0.0,83,0.00,OVC,,0.39,WeatherDisplay:10.37,2013-05-20 18:40:00,
2013-05-20 14:45:00,79.2,73.9,30.02,NE,45,0.0,0.0,84,0.00,OVC,,0.39,WeatherDisplay:10.37,2013-05-20 18:45:00,
2013-05-20 14:50:00,79.5,74.3,30.02,NE,45,0.5,2.8,84,0.00,OVC,,0.39,WeatherDisplay:10.37,2013-05-20 18:50:00,
2013-05-20 14:55:00,80.2,74.2,30.02,NE,45,0.5,1.4,82,0.00,OVC,,0.39,WeatherDisplay:10.37,2013-05-20 18:55:00,
2013-05-20 15:00:00,80.6,74.2,30.02,NE,45,1.6,3.5,81,0.00,OVC,,0.39,WeatherDisplay:10.37,2013-05-20 19:00:00,
2013-05-20 15:04:00,80.4,73.7,30.02,NE,45,0.0,0.0,80,0.00,OVC,,0.39,WeatherDisplay:10.37,2013-05-20 19:04:00,
2013-05-20 15:09:00,81.5,74.7,30.02,NE,45,0.0,0.0,80,0.00,OVC,,0.39,WeatherDisplay:10.37,2013-05-20 19:09:00,
2013-05-20 15:14:00,81.5,74.0,30.01,NE,45,0.0,0.0,78,0.00,OVC,,0.39,WeatherDisplay:10.37,2013-05-20 19:14:00,
2013-05-20 15:19:00,81.3,73.8,30.01,NE,45,1.0,2.3,78,0.00,OVC,,0.39,WeatherDisplay:10.37,2013-05-20 19:19:00,
2013-05-20 15:24:00,81.7,74.1,30.01,NE,45,0.0,0.0,78,0.00,OVC,,0.39,WeatherDisplay:10.37,2013-05-20 19:24:00,
2013-05-20 15:29:00,81.7,74.5,30.01,NE,45,0.0,0.0,79,0.00,OVC,,0.39,WeatherDisplay:10.37,2013-05-20 19:29:00,
2013-05-20 15:34:00,81.3,73.8,30.00,NE,45,4.0,5.6,78,0.00,OVC,,0.39,WeatherDisplay:10.37,2013-05-20 19:34:00,
2013-05-20 15:39:00,81.1,74.0,30.00,NE,45,4.4,9.2,79,0.00,OVC,,0.39,WeatherDisplay:10.37,2013-05-20 19:39:00,
2013-05-20 15:44:00,81.3,74.2,29.99,NE,45,1.8,2.8,79,0.00,OVC,,0.39,WeatherDisplay:10.37,2013-05-20 19:44:00,
2013-05-20 15:49:00,81.5,74.4,29.99,NE,45,2.6,4.6,79,0.00,OVC,,0.39,WeatherDisplay:10.37,2013-05-20 19:49:00,
2013-05-20 15:54:00,82.6,73.8,29.98,SE,135,2.7,2.8,75,0.00,OVC,,0.39,WeatherDisplay:10.37,2013-05-20 19:54:00,
2013-05-20 15:59:00,82.9,73.8,29.98,NE,45,4.1,5.5,74,0.00,OVC,,0.39,WeatherDisplay:10.37,2013-05-20 19:59:00,
2013-05-20 16:04:00,83.1,74.0,29.98,East,90,8.3,9.2,74,0.00,OVC,,0.39,WeatherDisplay:10.37,2013-05-20 20:04:00,
2013-05-20 16:09:00,82.6,73.4,29.99,NE,45,14.2,14.2,74,0.00,OVC,,0.39,WeatherDisplay:10.37,2013-05-20 20:09:00,
2013-05-20 16:14:00,82.2,73.1,29.99,East,90,1.6,2.8,74,0.00,OVC,,0.39,WeatherDisplay:10.37,2013-05-20 20:14:00,
2013-05-20 16:19:00,82.8,72.8,29.99,North,0,3.1,5.8,72,0.00,OVC,,0.39,WeatherDisplay:10.37,2013-05-20 20:19:00,
2013-05-20 16:24:00,82.8,72.8,29.99,East,90,2.5,4.6,72,0.00,OVC,,0.39,WeatherDisplay:10.37,2013-05-20 20:24:00,
2013-05-20 16:29:00,82.8,72.4,29.99,NE,45,0.6,2.8,71,0.00,OVC,,0.39,WeatherDisplay:10.37,2013-05-20 20:29:00,
2013-05-20 16:34:00,82.4,72.5,29.98,NE,45,10.5,10.5,72,0.00,OVC,,0.39,WeatherDisplay:10.37,2013-05-20 20:34:00,
2013-05-20 16:39:00,82.6,71.8,29.98,NE,45,2.8,5.6,70,0.00,OVC,,0.39,WeatherDisplay:10.37,2013-05-20 20:39:00,
2013-05-20 16:44:00,82.8,72.0,29.98,NE,45,0.7,2.8,70,0.00,OVC,,0.39,WeatherDisplay:10.37,2013-05-20 20:44:00,
2013-05-20 16:49:00,82.8,72.0,29.98,East,90,1.7,2.3,70,0.00,OVC,,0.39,WeatherDisplay:10.37,2013-05-20 20:49:00,
2013-05-20 16:54:00,82.6,73.0,29.98,NE,45,3.7,4.6,73,0.00,OVC,,0.39,WeatherDisplay:10.37,2013-05-20 20:54:00,
2013-05-20 16:59:00,82.9,74.2,29.98,East,90,0.7,7.0,75,0.00,OVC,,0.39,WeatherDisplay:10.37,2013-05-20 20:59:00,
2013-05-20 17:04:00,82.9,74.2,29.98,NE,45,9.7,10.4,75,0.00,OVC,,0.39,WeatherDisplay:10.37,2013-05-20 21:04:00,
2013-05-20 17:09:00,82.8,74.0,29.98,NE,45,4.1,5.8,75,0.00,BKN,,0.39,WeatherDisplay:10.37,2013-05-20 21:09:00,
2013-05-20 17:14:00,82.6,73.8,29.99,NE,45,1.1,2.8,75,0.00,BKN,,0.39,WeatherDisplay:10.37,2013-05-20 21:14:00,
2013-05-20 17:19:00,82.4,73.7,29.98,SE,135,4.0,4.6,75,0.00,BKN,,0.39,WeatherDisplay:10.37,2013-05-20 21:19:00,
2013-05-20 17:24:00,82.4,74.1,29.98,SE,135,0.0,0.0,76,0.00,BKN,,0.39,WeatherDisplay:10.37,2013-05-20 21:24:00,
2013-05-20 17:29:00,82.0,73.7,29.99,NE,45,2.7,5.6,76,0.00,BKN,,0.39,WeatherDisplay:10.37,2013-05-20 21:29:00,
2013-05-20 17:34:00,81.5,73.2,29.99,East,90,4.3,4.6,76,0.00,BKN,,0.39,WeatherDisplay:10.37,2013-05-20 21:34:00,
2013-05-20 17:39:00,80.8,72.9,29.99,SE,135,1.0,2.8,77,0.00,BKN,,0.39,WeatherDisplay:10.37,2013-05-20 21:39:00,
2013-05-20 17:44:00,80.4,72.5,29.99,NE,45,7.8,7.8,77,0.00,BKN,,0.39,WeatherDisplay:10.37,2013-05-20 21:44:00,
2013-05-20 17:49:00,80.1,73.0,30.00,SE,135,3.7,4.6,79,0.00,BKN,,0.39,WeatherDisplay:10.37,2013-05-20 21:49:00,
2013-05-20 17:54:00,79.7,72.6,29.99,NE,45,7.5,7.5,79,0.00,BKN,,0.39,WeatherDisplay:10.37,2013-05-20 21:54:00,
2013-05-20 17:59:00,79.3,72.6,30.00,NE,45,8.2,8.2,80,0.00,BKN,,0.39,WeatherDisplay:10.37,2013-05-20 21:59:00,
2013-05-20 18:04:00,79.2,72.5,29.99,NE,45,0.6,5.6,80,0.00,BKN,,0.39,WeatherDisplay:10.37,2013-05-20 22:04:00,
2013-05-20 18:09:00,78.6,71.9,29.99,NE,45,0.7,0.0,80,0.00,BKN,,0.39,WeatherDisplay:10.37,2013-05-20 22:09:00,
2013-05-20 18:14:00,78.4,72.1,29.99,SE,135,4.9,5.6,81,0.00,BKN,,0.39,WeatherDisplay:10.37,2013-05-20 22:14:00,
2013-05-20 18:19:00,78.1,71.8,30.00,NE,45,3.5,5.6,81,0.00,BKN,,0.39,WeatherDisplay:10.37,2013-05-20 22:19:00,
2013-05-20 18:24:00,77.2,71.6,30.00,NE,45,3.5,5.6,83,0.00,BKN,,0.39,WeatherDisplay:10.37,2013-05-20 22:24:00,
2013-05-20 18:29:00,76.6,71.8,30.00,East,90,0.4,1.4,85,0.00,BKN,,0.39,WeatherDisplay:10.37,2013-05-20 22:29:00,
2013-05-20 18:34:00,76.3,71.8,29.99,East,90,0.1,1.4,86,0.00,BKN,,0.39,WeatherDisplay:10.37,2013-05-20 22:34:00,
2013-05-20 18:39:00,75.9,71.4,29.99,SE,135,0.1,0.0,86,0.00,BKN,,0.39,WeatherDisplay:10.37,2013-05-20 22:39:00,
2013-05-20 18:44:00,75.7,71.6,29.99,SE,135,0.0,0.0,87,0.00,BKN,,0.39,WeatherDisplay:10.37,2013-05-20 22:44:00,
2013-05-20 18:49:00,75.6,71.8,29.98,SE,135,1.0,0.0,88,0.00,BKN,,0.39,WeatherDisplay:10.37,2013-05-20 22:49:00,
2013-05-20 18:54:00,75.6,71.8,29.98,SW,225,0.0,0.0,88,0.00,BKN,,0.39,WeatherDisplay:10.37,2013-05-20 22:54:00,
2013-05-20 18:59:00,75.6,71.8,29.99,NE,45,0.0,0.0,88,0.00,BKN,,0.39,WeatherDisplay:10.37,2013-05-20 22:59:00,
2013-05-20 19:04:00,75.4,71.6,29.99,NE,45,0.3,0.0,88,0.00,BKN,,0.39,WeatherDisplay:10.37,2013-05-20 23:04:00,
2013-05-20 19:09:00,75.4,71.6,29.99,South,180,0.0,2.3,88,0.00,BKN,,0.39,WeatherDisplay:10.37,2013-05-20 23:09:00,
2013-05-20 19:14:00,75.0,71.2,30.00,SE,135,0.0,0.0,88,0.00,BKN,,0.39,WeatherDisplay:10.37,2013-05-20 23:14:00,
2013-05-20 19:19:00,75.0,71.6,30.00,East,90,0.0,0.0,89,0.00,BKN,,0.39,WeatherDisplay:10.37,2013-05-20 23:19:00,
2013-05-20 19:24:00,75.0,71.2,30.00,SE,135,0.0,0.0,88,0.00,BKN,,0.39,WeatherDisplay:10.37,2013-05-20 23:24:00,
2013-05-20 19:29:00,75.0,71.6,30.00,SE,135,0.0,0.0,89,0.00,BKN,,0.39,WeatherDisplay:10.37,2013-05-20 23:29:00,
2013-05-20 19:34:00,74.8,71.4,30.01,SE,135,0.0,0.0,89,0.00,BKN,,0.39,WeatherDisplay:10.37,2013-05-20 23:34:00,
2013-05-20 19:39:00,74.8,71.4,30.00,SE,135,0.0,0.0,89,0.00,BKN,,0.39,WeatherDisplay:10.37,2013-05-20 23:39:00,
2013-05-20 19:44:00,74.8,71.4,30.01,SE,135,0.0,0.0,89,0.00,BKN,,0.39,WeatherDisplay:10.37,2013-05-20 23:44:00,
2013-05-20 19:49:00,74.7,71.2,30.01,SE,135,0.0,0.0,89,0.00,BKN,,0.39,WeatherDisplay:10.37,2013-05-20 23:49:00,
2013-05-20 19:54:00,74.5,71.4,30.01,SE,135,0.0,0.0,90,0.00,BKN,,0.39,WeatherDisplay:10.37,2013-05-20 23:54:00,
2013-05-20 19:59:00,74.5,71.4,30.01,SE,135,0.0,0.0,90,0.00,BKN,,0.39,WeatherDisplay:10.37,2013-05-20 23:59:00,
2013-05-20 20:04:00,74.3,71.2,30.01,SE,135,0.0,0.0,90,0.00,BKN,,0.39,WeatherDisplay:10.37,2013-05-21 00:04:00,
2013-05-20 20:09:00,74.1,71.0,30.01,SE,135,0.0,0.0,90,0.00,BKN,,0.39,WeatherDisplay:10.37,2013-05-21 00:09:00,
2013-05-20 20:14:00,74.1,71.6,30.01,SE,135,0.0,0.0,92,0.00,BKN,,0.39,WeatherDisplay:10.37,2013-05-21 00:14:00,
2013-05-20 20:19:00,74.1,71.3,30.01,SE,135,0.0,0.0,91,0.00,BKN,,0.39,WeatherDisplay:10.37,2013-05-21 00:19:00,
2013-05-20 20:24:00,73.9,70.8,30.01,SE,135,0.0,0.0,90,0.00,BKN,,0.39,WeatherDisplay:10.37,2013-05-21 00:24:00,
2013-05-20 20:29:00,73.6,69.8,30.01,SE,135,0.0,0.0,88,0.00,BKN,,0.39,WeatherDisplay:10.37,2013-05-21 00:29:00,
2013-05-20 20:34:00,73.0,69.3,30.02,SE,135,0.0,0.0,88,0.00,BKN,,0.39,WeatherDisplay:10.37,2013-05-21 00:34:00,
2013-05-20 20:39:00,72.7,68.9,30.03,SE,135,0.0,0.0,88,0.00,BKN,,0.39,WeatherDisplay:10.37,2013-05-21 00:39:00,
2013-05-20 20:44:00,72.7,68.9,30.03,SE,135,0.0,0.0,88,0.00,BKN,,0.39,WeatherDisplay:10.37,2013-05-21 00:44:00,
2013-05-20 20:49:00,72.3,68.6,30.03,SE,135,0.0,0.0,88,0.00,BKN,,0.39,WeatherDisplay:10.37,2013-05-21 00:49:00,
2013-05-20 20:54:00,72.1,68.4,30.03,SE,135,0.0,0.0,88,0.00,BKN,,0.39,WeatherDisplay:10.37,2013-05-21 00:54:00,
2013-05-20 20:59:00,72.0,68.5,30.03,SE,135,0.0,0.0,89,0.00,BKN,,0.39,WeatherDisplay:10.37,2013-05-21 00:59:00,
2013-05-20 21:04:00,71.8,68.4,30.04,SE,135,0.0,0.0,89,0.00,BKN,,0.39,WeatherDisplay:10.37,2013-05-21 01:04:00,
2013-05-20 21:09:00,71.4,68.0,30.03,SE,135,0.0,0.0,89,0.00,BKN,,0.39,WeatherDisplay:10.37,2013-05-21 01:09:00,
2013-05-20 21:13:00,71.4,68.0,30.03,SE,135,0.0,0.0,89,0.00,BKN,,0.39,WeatherDisplay:10.37,2013-05-21 01:13:00,
2013-05-20 21:18:00,71.2,67.8,30.03,SE,135,0.0,0.0,89,0.00,BKN,,0.39,WeatherDisplay:10.37,2013-05-21 01:18:00,
2013-05-20 21:23:00,71.2,67.8,30.03,SE,135,0.0,0.0,89,0.00,BKN,,0.39,WeatherDisplay:10.37,2013-05-21 01:23:00,
2013-05-20 21:28:00,71.2,67.8,30.03,SE,135,0.0,0.0,89,0.00,BKN,,0.39,WeatherDisplay:10.37,2013-05-21 01:28:00,
2013-05-20 21:33:00,71.2,67.8,30.04,SE,135,0.0,0.0,89,0.00,BKN,,0.39,WeatherDisplay:10.37,2013-05-21 01:33:00,
2013-05-20 21:38:00,71.1,68.0,30.03,SE,135,0.0,0.0,90,0.00,BKN,,0.39,WeatherDisplay:10.37,2013-05-21 01:38:00,
2013-05-20 21:43:00,71.1,68.0,30.04,SE,135,0.0,0.0,90,0.00,BKN,,0.39,WeatherDisplay:10.37,2013-05-21 01:43:00,
2013-05-20 21:48:00,70.9,67.8,30.03,SE,135,0.0,0.0,90,0.00,BKN,,0.39,WeatherDisplay:10.37,2013-05-21 01:48:00,
2013-05-20 21:53:00,70.9,67.8,30.04,SE,135,0.0,0.0,90,0.00,BKN,,0.39,WeatherDisplay:10.37,2013-05-21 01:53:00,
2013-05-20 21:58:00,70.7,67.9,30.04,SE,135,0.0,0.0,91,0.00,BKN,,0.39,WeatherDisplay:10.37,2013-05-21 01:58:00,
2013-05-20 22:03:00,70.7,67.9,30.04,SE,135,0.0,0.0,91,0.00,BKN,,0.39,WeatherDisplay:10.37,2013-05-21 02:03:00,
2013-05-20 22:08:00,70.5,67.8,30.04,SE,135,0.0,0.0,91,0.00,OVC,,0.39,WeatherDisplay:10.37,2013-05-21 02:08:00,
2013-05-20 22:13:00,70.3,67.6,30.03,SE,135,0.0,0.0,91,0.00,OVC,,0.39,WeatherDisplay:10.37,2013-05-21 02:13:00,
2013-05-20 22:18:00,70.2,67.4,30.03,SE,135,0.0,0.0,91,0.00,OVC,,0.39,WeatherDisplay:10.37,2013-05-21 02:18:00,
2013-05-20 22:23:00,70.0,67.5,30.03,SE,135,0.0,0.0,92,0.00,OVC,,0.39,WeatherDisplay:10.37,2013-05-21 02:23:00,
2013-05-20 22:28:00,70.0,67.5,30.03,SE,135,0.0,0.0,92,0.00,OVC,,0.39,WeatherDisplay:10.37,2013-05-21 02:28:00,
2013-05-20 22:33:00,70.0,67.5,30.04,SE,135,0.0,0.0,92,0.00,OVC,,0.39,WeatherDisplay:10.37,2013-05-21 02:33:00,
2013-05-20 22:38:00,69.6,67.2,30.03,SE,135,0.0,0.0,92,0.00,OVC,,0.39,WeatherDisplay:10.37,2013-05-21 02:38:00,
2013-05-20 22:43:00,69.6,67.2,30.03,SE,135,0.0,0.0,92,0.00,OVC,,0.39,WeatherDisplay:10.37,2013-05-21 02:43:00,
2013-05-20 22:48:00,69.6,67.5,30.03,SE,135,0.0,0.0,93,0.00,OVC,,0.39,WeatherDisplay:10.37,2013-05-21 02:48:00,
2013-05-20 22:53:00,69.4,67.3,30.02,SE,135,0.0,0.0,93,0.00,OVC,,0.39,WeatherDisplay:10.37,2013-05-21 02:53:00,
2013-05-20 22:58:00,69.4,67.3,30.02,SE,135,0.0,0.0,93,0.00,OVC,,0.39,WeatherDisplay:10.37,2013-05-21 02:58:00,
2013-05-20 23:03:00,69.4,67.6,30.02,SE,135,0.0,0.0,94,0.00,OVC,,0.39,WeatherDisplay:10.37,2013-05-21 03:03:00,
2013-05-20 23:08:00,69.1,67.0,30.02,SE,135,0.0,0.0,93,0.00,OVC,,0.39,WeatherDisplay:10.37,2013-05-21 03:08:00,
2013-05-20 23:13:00,68.9,67.1,30.02,SE,135,0.0,0.0,94,0.00,OVC,,0.39,WeatherDisplay:10.37,2013-05-21 03:13:00,
2013-05-20 23:18:00,68.9,67.1,30.02,SE,135,0.0,0.0,94,0.00,BKN,,0.39,WeatherDisplay:10.37,2013-05-21 03:18:00,
2013-05-20 23:23:00,68.7,66.9,30.02,SE,135,0.0,0.0,94,0.00,BKN,,0.39,WeatherDisplay:10.37,2013-05-21 03:23:00,
2013-05-20 23:28:00,68.7,66.9,30.02,SE,135,0.0,0.0,94,0.00,BKN,,0.39,WeatherDisplay:10.37,2013-05-21 03:28:00,
2013-05-20 23:33:00,68.5,66.7,30.02,SE,135,0.0,0.0,94,0.00,BKN,,0.39,WeatherDisplay:10.37,2013-05-21 03:33:00,
2013-05-20 23:38:00,68.4,66.6,30.02,SE,135,0.0,0.0,94,0.00,BKN,,0.39,WeatherDisplay:10.37,2013-05-21 03:38:00,
2013-05-20 23:43:00,68.5,67.1,30.01,SE,135,0.0,0.0,95,0.00,BKN,,0.39,WeatherDisplay:10.37,2013-05-21 03:43:00,
2013-05-20 23:48:00,68.5,67.1,30.01,SE,135,0.0,0.0,95,0.00,BKN,,0.39,WeatherDisplay:10.37,2013-05-21 03:48:00,
2013-05-20 23:53:00,68.4,66.9,30.01,SE,135,0.0,0.0,95,0.00,BKN,,0.39,WeatherDisplay:10.37,2013-05-21 03:53:00,
2013-05-20 23:58:00,68.2,66.7,30.01,SE,135,0.0,0.0,95,0.00,BKN,,0.39,WeatherDisplay:10.37,2013-05-21 03:58:00,